Погода в Большой Орловке

Россия / Ростовская область     47°19′49″N   41°16′25″E
темп.,
°C
ветер,
м/с
пор.,
м/с
влажн.,
%
обл.,
%
осадки,
мм/ч
давл.,
гПа
погр.,
м
12 мая, ср
ср1200:00+7юв51195100 1.3 1019509
03:00+7ююв2597100 13.1 1019203
06:00+7св239478 1.1 1019155
09:00+12в34785 1.1 1018582
12:00+16юв456029 0.0 10181527
15:00+18ююв565692 0.1 10171609
18:00+17ююв3572100 0.0 1016183
21:00+13в338199 0.0 101643
13 мая, чт
чт1300:00+12в497694 0.0 1014146
03:00+11в34765 0.0 101542
06:00+12в35780 0.0 1015104
09:00+19вюв34620 0.0 1015507
12:00+22юв45555 0.0 10141333
15:00+24юв455517 0.0 10141243
18:00+22юв357143 0.0 1014170
21:00+18вюв3378100 0.0 101424
14 мая, пт
пт1400:00+16в3487100 0.0 101451
03:00+15вюв34742 0.0 101453
06:00+15вюв487765 0.0 1014123
09:00+22юв57620 0.0 1014458
12:00+26вюв56515 0.0 1013721
15:00+27вюв56515 0.0 1012993
18:00+25вюв36685 0.0 1011190
21:00+20вюв337638 0.0 101138
15 мая, сб
сб1500:00+17юв498022 0.0 1011159
03:00+16вюв497575 0.0 1012153
06:00+15юв36775 0.0 1012145
09:00+21юв45605 0.0 1012359
12:00+25юв22555 0.0 1013749
15:00+27юв115284 0.0 10131051
18:00+26св11641 0.0 101248
21:00+21ссв127139 0.0 101211
16 мая, вс
вс1600:00+19св227860 0.0 101113
03:00+17св22796 0.0 101120
06:00+16вюв3678100 0.0 1011112
09:00+21юв5859100 0.0 1011428
12:00+26вюв71047100 0.0 1010975
15:00+28в61248100 0.0 10091657
18:00+25всв496595 0.0 1007169
21:00+23вюв81844100 0.0 1008513